User: anonymous   Login
Location: Hamburg
(53.5500°N, 10.0000°E)
Time: 21:34:59
(UTC+01:00)
Language:

Courier 1B - Orbit

View from above orbital plane
View from above orbital plane
View from above satellite
View from above satellite

Ground track
Ground track

The orbit data is extracted from the following two-line orbital elements,

1    58U 60013A   17327.98403342 +.00000091 +00000-0 +48144-5 0  9992
2    58 028.3265 165.5426 0165037 236.2126 122.2601 13.46311727812329
Epoch (UTC): 23 November 2017 23:37:00
Eccentricity: 0.0165037
inclination: 28.3265°
perigee height: 962 km
apogee height: 1209 km
right ascension of ascending node: 165.5426°
argument of perigee: 236.2126°
revolutions per day: 13.46311727
mean anomaly at epoch: 122.2601°
orbit number at epoch: 81232

The dashed part of the orbit path shows where the satellite is in the earth's shadow,  

DLR